Terug naar catalogus

CZ-6A DEB

ActiefPO
NORAD 60964·DEBRIS·🇨🇳 China

Gelanceerd Aug 6, 2024 vanaf Taiyuan Satellite Launch Center

Loading…

Volgende Passages (komende 24 uur)

TLE

VersSource: Space-Track

Epoch: Sep 14, 2026, 23:26 UTC

1 60964U 24140LP  26257.97674292  .00000227  00000-0  81383-4 0  9992
2 60964  89.0422 267.3155 0008099  23.6820 336.4747 14.30694212108003

Volg CZ-6A DEB in realtime met AllMySat

Download on the App Store